Overview Statistics Trail Chart Weather Telemetry Raw packets
 

This is the latest recevied weather packets stored in our database for station/object SV9TNF-57. If no packets are shown the sender has not sent any weather packets the latest 10 day(s).

<< 50 51 52 53 54 55 56 >>
Time Temp. Humidity Pressure Rain* Wind** Luminosity Snow
1788323315 26.67° C 50% 994.6 hPa 0 mm 0.89 m/s, 313° - -
1788323015 26.67° C 49% 994.6 hPa 0 mm 2.24 m/s, 40° - -
1788322714 26.67° C 50% 994.6 hPa 0 mm 4.92 m/s, 358° - -
1788322414 26.11° C 51% 994.5 hPa 0 mm 1.34 m/s, 263° - -
1788322114 25.56° C 52% 994.4 hPa 0 mm 0.89 m/s, 307° - -
1788321814 26.11° C 51% 994.6 hPa 0 mm 1.34 m/s, 307° - -
1788321514 26.11° C 51% 994.6 hPa 0 mm 2.68 m/s, 343° - -
1788321214 26.11° C 50% 994.6 hPa 0 mm 2.68 m/s, 259° - -
1788320914 26.67° C 50% 994.6 hPa 0 mm 0 m/s - -
1788320614 26.67° C 49% 994.5 hPa 0 mm 3.13 m/s, 298° - -
1788320314 26.67° C 49% 994.5 hPa 0 mm 0.89 m/s, 343° - -
1788320013 26.67° C 49% 994.4 hPa 0 mm 0 m/s - -
1788319713 26.67° C 49% 994.5 hPa 0 mm 2.68 m/s, 301° - -
1788319413 26.67° C 50% 994.3 hPa 0 mm 0.45 m/s, 294° - -
1788319113 26.67° C 50% 994.5 hPa 0 mm 4.02 m/s, 271° - -
1788318813 26.67° C 50% 994.5 hPa 0 mm 3.13 m/s, 344° - -
1788318513 26.11° C 50% 994.6 hPa 0 mm 2.24 m/s, 329° - -
1788318213 26.11° C 50% 994.5 hPa 0 mm 2.68 m/s, 352° - -
1788317913 26.11° C 50% 994.3 hPa 0 mm 0 m/s - -
1788317613 26.11° C 51% 994.6 hPa 0 mm 0.45 m/s, 281° - -
1788317313 26.11° C 51% 994.6 hPa 0 mm 0 m/s - -
1788317013 26.11° C 51% 994.7 hPa 0 mm 0.45 m/s, 312° - -
1788316713 25.56° C 51% 994.6 hPa 0 mm 0.45 m/s, 257° - -
1788316413 25.56° C 51% 994.7 hPa 0 mm 0 m/s - -
1788316112 25.56° C 51% 994.8 hPa 0 mm 0.89 m/s, 316° - -

* Rain latest hour (hover to see other rain measurements)
** Current wind speed in m/s (hover to see current wind gust speed)